GFSFLT2_925_spd_132.txt.gz
Wind_Speed
28 26 24 23 24 24 23 22 22 22 22 22 22 22 21 21 18 15 16 13 13 17 19 17 15 14 15 17 14 14 13 18
30 29 27 26 25 25 24 24 24 24 24 24 23 23 22 22 21 19 15 10 18 21 21 18 15 12 11 15 13 11 17 21
29 29 29 28 27 26 25 24 24 25 24 25 25 25 24 24 24 17 16 15 23 21 20 17 15 15 10 12 14 9 21 19
31 30 30 29 29 28 28 27 26 27 26 25 27 26 26 26 23 19 18 20 23 22 19 18 15 15 15 15 15 13 18 23
33 30 31 31 31 30 29 30 29 29 28 28 28 28 26 27 26 23 21 22 23 21 21 21 19 18 20 16 17 13 22 25
36 33 32 33 33 33 32 32 32 32 30 30 30 31 30 30 30 27 25 25 27 24 25 24 21 20 21 20 19 15 23 25
37 35 33 33 34 33 33 33 31 30 33 31 29 32 34 32 31 30 28 28 28 26 26 24 21 22 22 20 20 18 24 26
38 37 35 35 35 34 34 34 33 31 32 31 34 29 31 33 33 32 31 31 29 27 27 24 21 19 18 15 18 18 26 28
40 40 38 36 36 34 34 34 32 31 31 31 32 33 33 34 34 34 32 31 30 28 26 25 25 22 24 21 15 17 25 29
41 41 41 40 38 37 35 33 31 30 29 30 32 33 32 34 34 35 34 32 32 31 29 28 28 26 21 22 21 20 27 30
35 40 43 43 39 37 33 32 32 30 28 29 30 33 34 34 36 36 34 34 34 33 33 32 30 24 20 20 25 18 28 31
28 37 37 36 36 32 31 30 32 33 33 28 29 33 34 36 38 38 37 36 33 34 34 34 33 29 23 22 19 18 28 33
21 29 30 31 27 25 24 27 29 31 32 34 28 31 34 40 40 39 40 40 37 34 31 33 27 27 20 20 21 18 24 29
27 24 19 18 21 23 24 27 28 33 33 30 36 29 31 36 38 38 40 36 34 35 34 24 20 29 15 13 4 8 20 19
26 23 19 13 8 10 20 19 17 24 29 35 35 34 33 32 35 37 37 39 38 39 37 30 24 26 27 10 3 4 9 21
19 19 16 11 8 3 16 26 20 27 29 31 31 34 33 35 31 35 39 40 37 41 41 39 31 24 29 30 19 9 6 4
20 18 17 12 10 8 4 7 15 16 24 25 28 28 31 34 35 32 37 38 39 39 38 35 35 28 30 28 25 16 28 8
21 19 20 15 9 11 12 8 7 10 17 21 26 28 29 28 31 35 35 36 36 36 37 38 37 30 30 30 32 23 19 16
25 24 24 14 11 11 11 11 9 12 18 23 23 23 24 29 31 31 35 35 36 34 36 36 37 35 34 32 31 30 23 28
24 23 18 14 12 12 7 8 10 11 12 20 22 20 27 30 32 34 35 35 33 33 36 35 35 36 33 34 31 34 30 28

GFSFLT2_925_spd_138.txt.gz
Wind_Speed
35 34 33 31 31 30 29 28 28 27 26 26 25 24 22 20 18 16 17 17 16 18 19 20 21 21 17 16 16 15 15 16
33 33 33 33 32 30 29 28 27 27 26 25 25 24 23 22 19 17 17 17 18 18 19 20 20 19 17 16 15 17 12 13
33 33 32 32 31 30 28 27 26 26 26 26 26 25 24 24 20 18 16 15 18 19 19 19 19 19 17 17 13 14 9 12
33 32 31 30 29 29 28 28 27 27 27 27 27 27 26 25 23 19 17 14 16 20 21 19 19 19 19 18 16 12 8 13
30 32 32 32 31 30 27 29 28 28 28 28 28 28 27 26 24 22 19 15 18 22 22 20 19 18 17 17 15 13 11 11
26 28 32 33 32 31 27 27 26 24 28 29 28 28 28 27 27 24 21 17 20 23 23 21 18 16 15 16 14 11 12 13
27 31 33 34 34 33 32 32 31 28 29 31 28 26 30 29 28 26 24 20 22 24 23 22 20 17 15 14 14 15 13 12
34 35 38 37 38 37 37 35 34 30 27 34 31 28 28 31 29 29 26 24 23 24 24 23 21 18 16 16 18 18 13 17
37 41 42 43 41 40 36 33 34 31 28 33 33 31 27 30 30 30 29 26 24 24 24 20 19 18 17 17 17 17 16 13
29 33 39 46 44 42 40 36 33 32 26 29 31 33 31 30 32 32 31 29 28 27 26 22 22 21 19 18 17 15 16 16
24 32 40 47 47 44 41 36 29 26 26 27 30 28 31 30 31 32 32 32 31 27 24 25 25 23 21 18 17 16 16 17
26 31 40 45 42 35 30 30 29 29 30 31 30 32 32 31 31 30 30 31 31 29 26 26 28 25 21 17 17 17 18 19
23 28 38 35 34 33 30 32 34 33 32 31 31 33 34 34 34 31 33 32 32 32 29 25 20 24 16 11 11 15 18 21
23 27 34 40 37 35 27 30 27 28 31 33 34 34 35 32 36 34 34 31 32 34 32 21 18 28 11 11 3 3 16 21
26 24 32 33 31 31 27 22 13 19 24 27 34 35 30 31 36 34 34 33 31 34 35 31 24 28 26 10 3 4 3 13
21 17 24 28 30 26 29 25 16 21 29 21 33 31 30 32 35 35 34 34 32 32 36 34 29 25 28 28 11 15 3 2
16 21 22 25 29 34 26 19 16 14 16 16 22 25 29 30 32 33 34 34 34 31 34 33 35 26 31 27 21 17 12 4
12 29 28 23 20 14 18 15 12 11 14 14 15 17 21 29 31 31 33 33 34 34 36 37 32 32 31 26 30 17 11 7
14 13 22 29 28 21 9 13 8 4 4 6 9 11 14 19 23 28 31 33 33 34 35 37 36 33 31 31 30 32 24 25
22 20 21 23 25 22 15 8 5 1 1 1 5 10 14 17 17 23 30 32 34 35 35 36 37 36 34 33 30 30 29 27

GFSFLT2_925_spd_141.txt.gz
Wind_Speed
29 30 29 28 27 27 28 28 28 27 26 25 24 22 21 20 19 18 17 16 16 17 17 18 18 17 16 16 14 13 13 12
27 28 29 27 27 27 27 27 27 27 26 25 24 23 22 20 19 17 18 17 17 18 18 19 19 16 17 15 15 13 13 13
20 21 24 26 26 27 28 27 27 26 25 25 24 22 23 22 20 17 18 17 18 19 19 18 18 16 15 13 15 13 14 14
21 21 23 24 26 28 27 26 26 24 24 25 23 22 22 21 20 18 18 17 19 20 19 19 18 16 15 13 14 12 12 14
23 24 25 26 25 26 29 29 27 25 24 26 25 25 24 23 20 17 18 18 19 20 21 19 17 17 16 15 15 12 10 12
24 26 25 27 24 24 25 30 31 32 30 29 27 27 26 23 21 21 21 16 18 19 19 20 19 19 18 15 14 12 13 13
24 27 26 28 28 22 22 26 28 26 31 33 32 31 30 25 24 24 21 18 18 19 19 19 18 17 18 16 15 14 13 13
32 30 32 29 30 27 24 23 23 23 24 33 35 36 33 33 26 27 25 21 19 20 20 21 17 18 18 17 15 16 17 13
22 34 39 40 40 38 30 28 30 27 28 30 32 32 31 35 30 26 28 25 22 21 20 23 17 16 15 16 15 16 17 10
22 25 33 36 38 40 44 36 30 28 27 28 35 34 30 31 29 25 28 28 24 20 20 22 19 16 15 14 14 15 19 16
17 18 24 32 41 42 40 39 35 29 27 28 30 32 31 29 27 24 28 25 25 21 20 21 20 17 15 13 13 14 18 20
25 25 26 29 32 32 30 31 34 33 31 29 27 29 29 28 29 31 33 34 29 24 21 21 19 17 14 13 12 12 16 18
28 32 34 26 28 31 31 36 36 35 33 27 25 30 31 32 32 31 33 36 34 33 25 24 23 18 12 8 9 12 15 15
30 31 34 26 29 34 34 35 33 30 28 31 30 31 31 32 32 31 32 30 32 32 31 21 20 28 12 10 3 6 13 14
28 29 30 30 33 28 26 24 21 28 32 32 35 29 29 28 29 28 28 31 32 33 34 31 24 28 27 10 4 5 6 11
27 27 26 27 30 30 32 29 25 24 28 36 37 34 32 27 32 30 32 34 32 33 34 33 27 24 26 29 9 12 6 4
19 20 19 20 26 31 28 25 20 13 15 18 28 35 34 29 26 30 31 37 35 33 34 34 33 27 30 25 23 12 10 4
10 4 3 14 20 24 26 24 19 15 9 8 20 15 27 34 34 41 41 35 34 36 36 36 34 31 29 27 29 20 19 12
13 12 15 14 13 12 14 19 18 14 4 2 25 17 16 23 28 33 34 35 34 32 33 35 38 34 30 32 30 32 22 27
20 20 18 17 15 16 12 19 25 21 10 3 5 6 7 13 16 23 26 31 33 31 33 33 34 36 34 33 28 28 26 25

GFSFLT2_925_spd_144.txt.gz
Wind_Speed
14 17 22 24 25 25 24 24 25 24 23 23 23 22 22 21 20 18 17 15 14 14 15 15 15 14 14 13 13 12 8 9
16 17 17 19 20 25 25 26 26 26 24 23 22 22 21 20 19 18 17 16 15 15 16 16 15 15 13 11 10 10 6 7
17 18 18 19 19 20 25 25 26 25 24 23 21 17 18 19 17 18 18 17 16 16 16 16 16 14 13 11 11 8 7 7
19 19 18 17 17 16 20 19 21 21 21 20 20 18 18 17 17 17 18 16 16 16 17 17 16 12 12 12 10 9 8 7
20 20 19 19 18 16 17 20 21 21 22 22 22 21 20 20 16 15 15 16 14 15 16 16 16 13 13 13 11 10 9 8
20 22 21 20 19 19 18 22 21 22 24 25 25 23 23 24 21 19 18 18 16 17 16 17 16 15 13 13 12 12 9 9
23 23 23 21 21 20 22 23 23 23 23 25 24 24 22 24 24 23 22 20 19 18 17 18 17 16 15 14 13 12 11 13
23 25 26 26 25 24 24 25 26 26 26 27 31 26 24 24 23 24 23 23 21 20 20 19 18 17 17 15 14 13 12 17
20 24 25 26 29 30 28 26 26 28 28 26 31 31 25 24 24 23 23 22 21 21 20 19 19 17 17 16 14 14 14 16
12 17 22 26 27 27 29 30 30 28 28 26 30 32 29 27 24 25 24 23 22 21 21 20 21 20 18 17 16 16 16 15
10 9 18 23 28 30 29 28 30 30 29 29 28 33 36 30 27 24 23 23 24 23 23 22 21 21 19 18 17 17 16 18
15 13 13 18 21 23 26 28 30 32 32 30 28 34 34 32 29 24 27 25 24 24 24 23 21 21 20 18 17 16 15 17
25 21 17 15 20 23 25 29 32 34 35 32 32 32 32 37 33 28 27 28 27 26 24 24 21 20 17 14 12 14 16 17
27 26 26 22 20 24 26 26 28 30 31 32 34 32 32 34 33 28 26 24 24 27 27 19 20 25 17 14 4 9 17 20
33 31 29 27 25 24 26 24 24 25 27 32 36 36 32 32 33 29 27 25 25 27 31 27 21 25 26 12 4 6 10 19
35 33 31 29 26 26 29 27 27 30 29 31 33 35 33 34 33 32 30 21 29 27 29 31 22 22 23 28 14 9 7 5
34 31 28 28 28 29 29 32 31 25 24 26 32 31 32 31 32 31 29 27 32 26 26 31 32 24 26 20 27 17 16 10
44 34 15 18 24 26 28 29 30 25 25 26 31 29 29 27 26 26 26 32 35 30 24 33 34 32 27 26 23 21 20 17
42 36 27 27 17 5 17 27 29 25 23 23 16 12 10 14 6 17 23 27 28 29 36 37 36 34 33 30 26 28 27 26
38 37 33 34 26 22 15 10 14 13 11 11 15 14 11 9 17 20 34 24 29 32 33 35 35 36 35 33 33 30 29 26

GFSFLT2_925_spd_147.txt.gz
Wind_Speed
9 17 23 22 21 20 19 19 19 20 20 20 20 19 18 17 15 14 13 12 11 10 11 11 10 10 10 9 9 8 3 7
12 15 17 18 18 20 20 19 19 19 19 19 19 18 19 18 17 15 14 13 11 11 11 11 11 11 10 9 9 7 5 4
14 16 16 17 16 16 21 20 20 20 19 19 19 16 16 16 15 16 16 15 13 13 13 13 12 11 11 10 8 8 4 3
16 17 17 18 17 15 16 16 17 17 17 17 18 17 16 16 16 17 16 16 15 14 15 14 13 10 9 10 10 10 6 3
18 18 17 18 18 18 17 20 19 20 20 20 20 19 19 18 17 16 15 17 14 16 17 15 15 14 14 11 12 11 8 7
17 18 17 18 18 20 18 21 21 22 23 24 22 23 21 21 21 17 18 19 17 17 17 17 17 16 15 13 13 10 10 5
15 18 20 20 21 20 20 23 22 23 23 26 25 25 21 23 22 19 20 19 19 19 19 18 19 18 15 14 14 12 8 6
13 18 21 21 21 22 22 22 23 23 23 25 27 24 26 24 24 23 21 20 20 19 19 18 17 20 18 16 15 14 13 9
15 14 20 22 23 23 23 23 25 26 27 26 27 34 26 26 26 25 24 22 20 19 18 18 18 18 19 19 17 15 13 12
19 16 13 21 24 24 25 26 26 27 28 27 31 33 30 26 27 26 25 23 22 22 21 20 20 19 18 17 21 17 15 15
21 20 17 16 19 25 26 26 27 27 27 29 28 31 36 28 29 28 25 25 24 24 23 22 19 20 19 19 17 17 18 19
23 22 22 18 21 19 24 26 27 28 29 29 30 30 34 38 30 28 28 24 28 26 24 24 21 22 22 19 20 16 15 21
32 28 25 23 21 20 22 24 27 29 31 31 32 30 30 36 35 30 29 27 28 30 24 23 21 20 20 10 12 16 18 17
37 36 32 28 26 27 22 24 25 27 29 32 32 32 33 34 38 35 32 32 30 29 29 22 22 22 19 11 5 7 17 19
37 39 37 35 30 30 29 26 26 25 25 26 31 35 34 34 36 34 34 34 32 31 30 27 19 20 25 12 3 6 11 23
33 35 36 37 37 30 28 28 25 27 29 27 29 31 35 36 36 35 35 34 32 32 31 32 29 18 21 29 22 11 7 6
31 33 35 40 41 34 33 33 29 33 26 28 28 30 32 35 33 37 37 35 32 31 34 36 39 30 23 23 27 25 19 8
31 33 34 40 43 41 35 34 36 31 31 28 26 26 31 33 35 35 37 36 32 30 32 23 26 24 27 28 22 18 20 16
31 35 33 37 39 39 39 37 35 33 34 26 26 25 27 32 36 37 35 33 27 31 28 19 23 26 29 25 30 29 24 26
30 31 33 32 38 39 36 37 39 32 29 26 25 20 14 20 27 25 19 15 17 22 19 20 22 29 28 29 29 30 31 29